MDT,Max TemperatureF,Mean TemperatureF,Min TemperatureF,Max Dew PointF,MeanDew PointF,Min DewpointF,Max Humidity, Mean Humidity, Min Humidity, Max Sea Level PressureIn, Mean Sea Level PressureIn, Min Sea Level PressureIn, Max VisibilityMiles, Mean VisibilityMiles, Min VisibilityMiles, Max Wind SpeedMPH, Mean Wind SpeedMPH, Max Gust SpeedMPH,PrecipitationIn, CloudCover, Events, WindDirDegrees
2013-10-1,89,78,68,73,66,54,100,69,39,29.93,29.89,29.85,10,10,7,9,5,17,0.00,1,,166
2013-10-2,90,82,74,74,68,62,98,70,40,29.97,29.92,29.86,10,10,7,10,6,20,0.00,4,Rain,156
2013-10-3,90,81,72,72,67,62,97,65,39,29.95,29.89,29.84,10,10,10,13,7,20,0.00,2,,170
2013-10-4,90,81,72,69,66,63,85,64,40,29.92,29.88,29.84,10,10,10,14,7,22,0.00,3,,172
2013-10-5,85,73,61,72,58,37,100,62,40,30.11,29.99,29.89,10,10,10,15,6,22,0.00,4,,334
2013-10-6,79,64,50,51,44,31,94,57,18,30.17,30.12,30.07,10,10,7,10,5,17,0.06,1,Rain-Thunderstorm,320
2013-10-7,84,64,44,47,41,35,90,52,18,30.19,30.12,30.05,10,10,10,6,1,,0.00,0,,88
2013-10-8,85,66,48,49,45,42,88,50,22,30.10,30.04,29.98,10,10,10,9,2,,0.00,0,,171
2013-10-9,84,70,56,58,53,45,85,58,31,30.07,30.01,29.96,10,10,10,12,6,20,0.00,0,,169
2013-10-10,85,72,60,65,61,58,100,69,41,30.04,29.97,29.88,10,10,10,13,6,21,0.00,3,,159
2013-10-11,87,78,70,71,67,64,83,69,48,29.96,29.89,29.85,10,10,10,14,7,20,0.00,6,Rain,170
2013-10-12,90,82,73,75,69,66,100,71,45,30.04,29.97,29.92,10,9,5,10,5,18,0.00,5,Rain-Thunderstorm,157
2013-10-13,75,70,65,72,69,65,100,97,79,30.18,30.11,30.04,10,8,3,12,5,22,1.22,8,Rain-Thunderstorm,111
2013-10-14,81,76,70,75,70,66,100,88,60,30.09,30.01,29.93,10,8,2,8,4,,0.09,7,Rain,152
2013-10-15,81,68,55,72,65,52,100,84,57,30.05,29.97,29.90,10,10,4,14,6,21,0.00,7,Rain,236
2013-10-16,61,56,52,57,55,52,100,94,78,30.11,30.06,30.00,10,8,2,10,6,,1.01,8,Rain,340
2013-10-17,74,61,48,52,48,42,100,67,32,30.15,30.06,29.98,10,10,10,6,1,,0.00,0,,79
2013-10-18,71,63,54,64,56,49,100,77,65,30.09,29.96,29.90,10,10,10,15,3,24,0.00,7,Rain,139
2013-10-19,67,56,43,51,42,34,100,70,30,30.23,30.14,30.10,10,10,7,17,8,23,0.00,3,,343
2013-10-20,74,58,41,50,45,41,100,68,36,30.09,29.99,29.90,10,10,10,14,3,20,0.00,0,,169
2013-10-21,79,68,58,63,57,48,100,73,54,30.12,29.97,29.91,10,10,10,13,5,18,0.00,5,,2
2013-10-22,75,62,47,51,44,34,86,60,22,30.20,30.14,30.10,10,10,10,10,6,16,0.00,1,,328
2013-10-23,82,62,43,48,42,36,100,56,19,30.18,30.13,30.09,10,10,7,8,1,,0.00,0,,189
2013-10-24,81,63,45,51,45,39,100,58,22,30.24,30.18,30.13,10,10,10,7,1,,0.00,0,,155
2013-10-25,77,63,49,59,54,48,100,70,47,30.33,30.25,30.20,10,10,10,9,3,17,0.00,3,,138
2013-10-26,81,72,61,63,61,58,97,74,48,30.22,30.14,30.06,10,10,7,13,6,21,0.00,5,Thunderstorm,165
2013-10-27,72,66,61,67,61,58,100,89,65,30.14,30.07,30.02,10,10,2,7,2,,0.15,6,Rain-Thunderstorm,320
2013-10-28,83,74,64,69,65,61,100,81,48,30.09,30.02,29.98,10,9,3,16,6,24,0.00,6,Rain,150
2013-10-29,82,76,70,68,65,64,86,72,55,30.07,30.02,29.98,10,10,10,17,9,25,0.00,6,Rain-Thunderstorm,159
2013-10-30,81,76,71,74,70,66,100,87,63,30.03,29.92,29.80,10,9,5,12,3,17,0.04,7,Rain-Thunderstorm,170
2013-10-31,78,64,48,72,50,28,100,62,16,29.91,29.85,29.75,10,10,10,16,5,28,0.07,2,Rain-Thunderstorm,258